Weather Roundup
Issued by NWS

Home | Current Version | Previous Version | Graphics & Text | Print | Product List | Glossary Off
Versions: 1 2 3 4 5 6 7 8 9 10 11 12 13 14 15 16 17 18 19 20 21 22 23 24 25 26 27 28 29 30 31 32 33 34 35 36 37 38 39 40 41 42 43 44 45 46 47 48 49 50

000
NZUS93 KARX 250910
HRRWXR

CURRENT HOURLY OBSERVATIONS ACROSS
MUCH OF THE UPPER MISSISSIPPI VALLEY
NATIONAL WEATHER SERVICE LA CROSSE WI
400 AM CDT MON MAY 25 2015


...SOUTHEAST MINNESOTA...


CITY           SKY/WX    TMP DP  RH WIND       PRES   REMARKS
ROCHESTER      FOG       59  58  96 SE7       29.72S VSB 3/4
ROCHESTER/MAYO CLOUDY    58  59 100 SE5       29.71S
WINONA         CLOUDY    59  59 100 CALM      29.72S FOG
AUSTIN         CLOUDY    63  61  94 SW6       29.70F FOG
ALBERT LEA     CLOUDY    63  61  94 SW5       29.70F FOG
DODGE CENTER   CLOUDY    61  61 100 S6        29.70F FOG
PRESTON        LGT RAIN  59  58  97 S6        29.72F VSB 1/4
OWATONNA       CLOUDY    63  61  94 S8        29.70R FOG
FARIBAULT      CLOUDY    61  61 100 SE3       29.69S FOG
$$

...ELSEWHERE IN MINNESOTA...


CITY           SKY/WX    TMP DP  RH WIND       PRES   REMARKS
MINNEAPOLIS    CLOUDY    58  57  97 E9        29.69F
INTNL FALLS    CLOUDY    53  49  86 CALM      29.82F
DULUTH         LGT RAIN  58  55  90 NE13      29.80F
RED WING       CLOUDY    57  57 100 E5        29.69F
REDWOOD FALLS  CLOUDY    58  57  97 CALM      29.68F FOG
MANKATO        CLOUDY    63  61  94 S6        29.68F
WORTHINGTON    CLOUDY    57  55  94 NW7       29.72F VSB 1
FAIRMONT       CLOUDY    61  55  82 SW8       29.70S
$$

...SOUTHWEST WISCONSIN...


CITY           SKY/WX    TMP DP  RH WIND       PRES   REMARKS
LA CROSSE      CLOUDY    62  60  93 E3        29.71F FOG
PRAIRIE DU CHI LGT RAIN  67  63  89 S3        29.73F
BOSCOBEL       LGT RAIN  62  60  93 N3        29.74F FOG
LONE ROCK      CLOUDY    64  62  93 E3        29.76F FOG
PLATTEVILLE    CLOUDY    65  65  97 S6        29.75F
FORT MC COY    CLOUDY    64  62  94 SE5       29.73F
CAMP DOUGLAS   CLOUDY    60  60 100 SE5       29.75S FOG
VIROQUA        CLOUDY    64  64 100 S12G17    29.74F
WIS DELLS      DRIZZLE   64  62  94 S3        29.77S
$$

...ELSEWHERE IN WISCONSIN...


CITY           SKY/WX    TMP DP  RH WIND       PRES   REMARKS
MILWAUKEE      CLOUDY    54  52  93 E6        29.84F FOG
MADISON        LGT RAIN  65  64  97 S6        29.78S
GREEN BAY      CLOUDY    58  57  97 NE3       29.82F FOG
EAU CLAIRE     LGT RAIN  57  55  93 E5        29.72F FOG
BLACK RVR FLS  RAIN      60  60 100 CALM      29.73S
MEDFORD        DRIZZLE   55  55  99 SE7       29.76S
WAUSAU         CLOUDY    56  56 100 SE8       29.77F FOG
WIS RAPIDS     CLOUDY    60  58  92 SE5       29.78F FOG
MARSHFIELD     LGT RAIN  58  56  93 SE8       29.76F VSB 1/2
RICE LAKE      RAIN      56  55  94 E3        29.75F
$$

...NORTHEAST IOWA...


CITY           SKY/WX    TMP DP  RH WIND       PRES   REMARKS
DECORAH        CLOUDY    64  64 100 VRB7      29.72F
MASON CITY     CLOUDY    62  61  96 SW8       29.72F FOG
CHARLES CITY   CLOUDY    63  63 100 S8        29.73S
OELWEIN        DRIZZLE   63  63 100 S7        29.74F
$$

...ELSEWHERE IN IOWA...


CITY           SKY/WX    TMP DP  RH WIND       PRES   REMARKS
DES MOINES     DRIZZLE   64  61  90 SW9       29.75F
IOWA CITY      CLOUDY    64  62  93 W6        29.76F
FORT DODGE     CLOUDY    61  57  88 SW3       29.74S
$$

...NORTHERN ILLINOIS...


CITY           SKY/WX    TMP DP  RH WIND       PRES   REMARKS
CHICAGO-OHARE  CLOUDY    71  59  65 S14       29.84S
CHICAGO-MIDWAY CLOUDY    74  64  71 S14       29.85S
MOLINE         LGT RAIN  68  64  87 S18G24    29.72
ROCKFORD       LGT RAIN  68  65  90 SE9       29.81F
PEORIA         CLOUDY    70  64  81 S18G24    29.81F
$$

NOTE: "FAIR" INDICATES FEW OR NO CLOUDS BELOW 12,000 FEET WITH NO
SIGNIFICANT WEATHER AND/OR OBSTRUCTIONS TO VISIBILITY. WIND
SPEEDS ARE IN MILES-PER-HOUR.



USA.gov is the U.S. government's official web portal to all federal, state and local government web resources and services.